FENGYUN 1C DEB

Satellite information

Favourite Embed

Satellite Type and Status

DEBRISIN ORBIT

Key statistics

Satellite FENGYUN 1C DEB at a glance.

Uptime

9658

Days in orbit

Revolutions

≈ 14.6

Per day

Orbit

SSO

Sun Synchronous Orbit

Inclination

99.1

Latest

Satellite identification and parameters

Extended collection of information and parameters for FENGYUN 1C DEB.

Object identification

Identified? True

Debris? True

Object name: FENGYUN 1C DEB

International designator: 1999-025DMZ

Object number (NORAD): 35169

Object ID (CCSDS): 35169

Country: PEOPLES REPUBLIC OF CHINA (PRC)

Current information (Y/N): Y

RCS size: SMALL

Orbital parameters

Period: 98.756 minutes

Inclination: 99.1336 deg

SMA: 7077.306 km

Apoapsis: 806.819 km

Periapsis: 591.524 km

RAAN: 164.6058 deg

Eccentricy: 0.01521024

Argument of periapsis: 289.3582 deg

Mean anomaly: 69.1225 deg

Mean motion: 14.58145239 rev/day

Mean motion (dot): 0.00004485 rev/day2

B* drag term: 0.00084119793 1/REarth

Two-line elements (TLE)

Creation date: Oct. 14, 2025, 2:50 a.m.

Reference frame: TEME

Reference center: EARTH

Epoch: Oct. 13, 2025, 10:05 p.m. UTC

TLE line 0: 0 FENGYUN 1C DEB

TLE line 1: 1 35169U 99025DMZ 25286.92075962 .00004485 00000-0 84120-3 0 9991

TLE line 2: 2 35169 99.1336 164.6058 0152102 289.3582 69.1225 14.58145239649089

Live tracking on map

Real-time ground track for satellite FENGYUN 1C DEB.

In-orbit conjunctions

A list of the most updated potential collisions computed for object FENGYUN 1C DEB.

Target Orbit TCA Probability of collision Miss distance Type
CZ-6A DEB LEO 2025-02-27 18:56:06 0.0001464647 341.0 (m) DEBRIS
ELECTRON KICK STAGE R/B SSO 2025-01-30 06:09:05 0.0002003847 355.0 (m) ROCKET BODY
CZ-6A DEB LEO 2024-10-19 15:03:11 0.0001464748 207.0 (m) DEBRIS
FENGYUN 1C DEB SSO 2024-09-28 19:41:30 0.0001544975 713.0 (m) DEBRIS

Associated space launch

Chinese polar orbiting meteorological satellite

FENGYUN 1C DEB was lifted into orbit during the mission ‘Long March 4B | Feng Yun 1C’, on board a Long March 4B space rocket.

The launch took place on May 10, 1999, 1:33 a.m. from Launch Complex 7.

For more information about the launch, click the button.

Launch to space Long March 4B | Feng Yun 1C
Long March 4B | Feng Yun 1C

Agency: N/A

Status: Launch Successful

Launch date: May 10, 1999, 1:33 a.m. UTC

Rocket: Long March 4B

Launch pad: Launch Complex 7

Location: Taiyuan Satellite Launch Center, People's Republic of China

...

Latest news about this satellite

There are no fresh news available about this satellite. Check back as we update our databases every day.


Newsletter sign-up

Weekly statistics, charts and insights to help you stay on top of the space industry.